User: anonymous   Login
Location: Unspecified
(0.0000°N, 0.0000°E)
Time: 19:09:07
(UTC+00:00)
Language:

TBA - TO BE ASSIGNED - Orbit

View from above orbital plane
View from above orbital plane
View from above satellite
View from above satellite

Ground track
Ground track

The orbit is defined by the following mean orbital elements,

1 68617U          26145.58335647 +.00000000 +00000-0 +71926-3 0 00008
2 68617  97.2848 345.1038 0001688  91.4683  76.1225 15.49169477    02
Epoch (UTC): 25 May 2026 14:00:01
Eccentricity: 0.0001688
inclination: 97.2848°
perigee height: 418 km
apogee height: 420 km
right ascension of ascending node: 345.1038°
argument of perigee: 91.4683°
revolutions per day: 15.49169477
mean anomaly at epoch: 76.1225°

The dashed part of the orbit path shows where the satellite is in the earth's shadow,  

DLR